Location: Unspecified
(56.5167°N, 0.0000°E)
Time: 00:24:43
(UTC+02:00)

ISS - Visible Passes

Search period start: 23 October 2014 00:00
Search period end: 01 November 2014 23:00
Orbit: 413 x 416 km, 51.6° (Epoch: 22 October)

Date Brightness Start Highest point End Pass type
(mag) Time Alt. Az. Time Alt. Az. Time Alt. Az.
23 Oct -0.8 20:14:07 10° WSW 20:16:26 18° SSW 20:18:45 10° SSE visible
24 Oct -1.0 19:24:50 10° WSW 19:27:30 22° SSW 19:30:09 10° SSE visible
25 Oct -0.2 20:13:40 10° SW 20:14:22 11° SW 20:15:04 10° SSW visible
26 Oct -0.4 18:23:32 10° WSW 18:25:25 14° SSW 18:27:19 10° S visible
